When you browse on this site, cookies collect data to enhance your experience and personalize the content and advertising you see.
Visit our Privacy Policy to learn more. By continuing to use the site, you agree to this use of cookies and data.
  • Em Portugal
  • Lista de países
  • Para 7 dias
  • Temperatura da água
  • Mapas de satélite
  • Mapa do tempo
  • Widgets de tempo
  • user-avatar
    Iniciar Sessão

    Previsão horária em Székesfehérvár

    Hoje, 19 Julho, Sexta-feira

    Tempo Temperatura Precipitação Vento Pressão Humidade
    00:00 +19°C° 0.1 mm 1 m/s 749 mmHg 86%
    01:00 +17°C° 0.1 mm 0 m/s 750 mmHg 86%
    02:00 +16°C° 0 mm 0 m/s 750 mmHg 87%
    03:00 +18°C° 0 mm 1 m/s 750 mmHg 88%
    04:00 +18°C° 0 mm 1 m/s 750 mmHg 90%
    05:00 +17°C° 0 mm 0 m/s 750 mmHg 86%
    06:00 +19°C° 0 mm 0 m/s 750 mmHg 82%
    07:00 +20°C° 0 mm 0 m/s 751 mmHg 78%
    08:00 +24°C° 0.3 mm 1 m/s 751 mmHg 72%
    09:00 +25°C° 0.3 mm 1 m/s 751 mmHg 65%
    10:00 +27°C° 0.3 mm 2 m/s 751 mmHg 59%
    11:00 +27°C° 0 mm 2 m/s 751 mmHg 55%
    12:00 +28°C° 0 mm 2 m/s 751 mmHg 51%
    13:00 +29°C° 0 mm 2 m/s 750 mmHg 47%
    14:00 +29°C° 0 mm 2 m/s 750 mmHg 46%
    15:00 +29°C° 0 mm 2 m/s 750 mmHg 46%
    16:00 +29°C° 0 mm 2 m/s 750 mmHg 45%
    17:00 +28°C° 0 mm 2 m/s 750 mmHg 50%
    18:00 +26°C° 0 mm 2 m/s 750 mmHg 55%
    19:00 +25°C° 0 mm 2 m/s 750 mmHg 60%
    20:00 +24°C° 0.1 mm 2 m/s 750 mmHg 63%
    21:00 +23°C° 0.1 mm 2 m/s 751 mmHg 66%
    22:00 +21°C° 0.1 mm 2 m/s 751 mmHg 69%
    23:00 +20°C° 0 mm 2 m/s 751 mmHg 71%

    Amanhã, 20 Julho, Sábado

    Tempo Temperatura Precipitação Vento Pressão Humidade
    00:00 +20°C° 0 mm 2 m/s 751 mmHg 73%
    01:00 +20°C° 0 mm 2 m/s 751 mmHg 75%
    02:00 +20°C° 0 mm 1 m/s 751 mmHg 76%
    03:00 +20°C° 0 mm 1 m/s 751 mmHg 77%
    04:00 +20°C° 0 mm 1 m/s 751 mmHg 78%
    05:00 +21°C° 0 mm 1 m/s 751 mmHg 75%
    06:00 +23°C° 0 mm 1 m/s 752 mmHg 71%
    07:00 +24°C° 0 mm 1 m/s 752 mmHg 67%
    08:00 +26°C° 0 mm 2 m/s 752 mmHg 62%
    09:00 +27°C° 0 mm 2 m/s 752 mmHg 58%
    10:00 +29°C° 0 mm 3 m/s 752 mmHg 53%
    11:00 +30°C° 0 mm 3 m/s 752 mmHg 51%
    12:00 +30°C° 0 mm 4 m/s 752 mmHg 49%
    13:00 +32°C° 0 mm 4 m/s 752 mmHg 46%
    14:00 +32°C° 0 mm 4 m/s 751 mmHg 47%
    15:00 +32°C° 0 mm 4 m/s 751 mmHg 47%
    16:00 +32°C° 0 mm 4 m/s 751 mmHg 48%
    17:00 +30°C° 0 mm 3 m/s 751 mmHg 55%
    18:00 +28°C° 0 mm 3 m/s 751 mmHg 62%
    19:00 +27°C° 0 mm 3 m/s 751 mmHg 69%
    20:00 +25°C° 0 mm 3 m/s 751 mmHg 71%
    21:00 +24°C° 0 mm 2 m/s 752 mmHg 73%
    22:00 +23°C° 0 mm 2 m/s 752 mmHg 75%
    23:00 +23°C° 0 mm 2 m/s 752 mmHg 76%

    Depois de amanhã, 21 Julho, Domingo

    Tempo Temperatura Precipitação Vento Pressão Humidade
    00:00 +21°C° 0 mm 2 m/s 752 mmHg 76%
    01:00 +22°C° 0 mm 1 m/s 752 mmHg 77%
    02:00 +21°C° 0 mm 1 m/s 752 mmHg 77%
    03:00 +21°C° 0 mm 1 m/s 752 mmHg 78%
    04:00 +21°C° 0 mm 1 m/s 752 mmHg 78%
    05:00 +22°C° 0 mm 1 m/s 752 mmHg 75%
    06:00 +23°C° 0 mm 2 m/s 752 mmHg 73%
    07:00 +25°C° 0 mm 2 m/s 753 mmHg 70%
    08:00 +26°C° 0 mm 2 m/s 753 mmHg 65%
    09:00 +28°C° 0 mm 2 m/s 753 mmHg 59%
    10:00 +30°C° 0 mm 2 m/s 753 mmHg 54%
    11:00 +31°C° 0 mm 3 m/s 753 mmHg 50%
    12:00 +33°C° 0 mm 3 m/s 753 mmHg 46%
    13:00 +34°C° 0 mm 3 m/s 752 mmHg 42%
    14:00 +34°C° 0 mm 3 m/s 752 mmHg 42%
    15:00 +34°C° 0 mm 3 m/s 752 mmHg 42%
    16:00 +34°C° 0 mm 3 m/s 752 mmHg 43%
    17:00 +31°C° 0 mm 2 m/s 752 mmHg 49%
    18:00 +29°C° 0 mm 2 m/s 752 mmHg 56%
    19:00 +27°C° 0 mm 2 m/s 752 mmHg 62%
    20:00 +26°C° 0 mm 2 m/s 753 mmHg 64%
    21:00 +25°C° 0 mm 2 m/s 753 mmHg 65%
    22:00 +25°C° 0 mm 2 m/s 754 mmHg 66%
    23:00 +24°C° 0 mm 2 m/s 754 mmHg 69%

    22 Julho, Segunda-feira

    Tempo Temperatura Precipitação Vento Pressão Humidade
    00:00 +22°C° 0 mm 3 m/s 754 mmHg 71%
    01:00 +22°C° 0 mm 3 m/s 754 mmHg 74%
    02:00 +21°C° 0 mm 3 m/s 754 mmHg 76%
    03:00 +21°C° 0 mm 3 m/s 754 mmHg 79%
    04:00 +21°C° 0 mm 4 m/s 754 mmHg 82%
    05:00 +22°C° 0 mm 4 m/s 754 mmHg 78%
    06:00 +23°C° 0 mm 4 m/s 755 mmHg 73%
    07:00 +25°C° 0 mm 4 m/s 755 mmHg 69%
    08:00 +27°C° 0 mm 5 m/s 755 mmHg 62%
    09:00 +28°C° 0 mm 5 m/s 755 mmHg 56%
    10:00 +30°C° 0 mm 5 m/s 756 mmHg 49%
    11:00 +30°C° 0 mm 5 m/s 755 mmHg 47%
    12:00 +30°C° 0 mm 6 m/s 755 mmHg 45%
    13:00 +32°C° 0 mm 6 m/s 755 mmHg 43%
    14:00 +32°C° 0 mm 6 m/s 755 mmHg 43%
    15:00 +30°C° 0 mm 6 m/s 754 mmHg 44%
    16:00 +30°C° 0 mm 6 m/s 754 mmHg 44%
    17:00 +29°C° 0 mm 5 m/s 754 mmHg 50%
    18:00 +27°C° 0 mm 4 m/s 754 mmHg 55%
    19:00 +26°C° 0 mm 3 m/s 755 mmHg 61%
    20:00 +25°C° 0 mm 3 m/s 755 mmHg 63%
    21:00 +24°C° 0 mm 3 m/s 755 mmHg 65%
    22:00 +22°C° 0 mm 3 m/s 755 mmHg 67%
    23:00 +21°C° 0 mm 3 m/s 755 mmHg 69%

    23 Julho, Terça-feira

    Tempo Temperatura Precipitação Vento Pressão Humidade
    00:00 +21°C° 0 mm 3 m/s 755 mmHg 72%
    01:00 +20°C° 0 mm 2 m/s 756 mmHg 74%
    02:00 +20°C° 0 mm 2 m/s 755 mmHg 75%
    03:00 +19°C° 0 mm 2 m/s 755 mmHg 76%
    04:00 +19°C° 0 mm 2 m/s 755 mmHg 78%
    05:00 +20°C° 0 mm 2 m/s 755 mmHg 74%
    06:00 +21°C° 0 mm 2 m/s 755 mmHg 69%
    07:00 +22°C° 0 mm 3 m/s 756 mmHg 65%
    08:00 +24°C° 0 mm 3 m/s 756 mmHg 59%
    09:00 +26°C° 0 mm 3 m/s 756 mmHg 54%
    10:00 +27°C° 0 mm 3 m/s 756 mmHg 48%
    11:00 +28°C° 0 mm 4 m/s 755 mmHg 46%
    12:00 +29°C° 0 mm 4 m/s 755 mmHg 44%
    13:00 +30°C° 0 mm 4 m/s 754 mmHg 41%
    14:00 +29°C° 0 mm 5 m/s 754 mmHg 42%
    15:00 +29°C° 0 mm 5 m/s 754 mmHg 43%
    16:00 +29°C° 0 mm 5 m/s 753 mmHg 43%
    17:00 +28°C° 0 mm 4 m/s 753 mmHg 49%
    18:00 +26°C° 0 mm 4 m/s 753 mmHg 54%
    19:00 +25°C° 0 mm 3 m/s 753 mmHg 60%
    20:00 +22°C° 0 mm 3 m/s 753 mmHg 63%
    21:00 +21°C° 0 mm 2 m/s 754 mmHg 65%
    22:00 +20°C° 0 mm 2 m/s 754 mmHg 68%
    23:00 +20°C° 0 mm 1 m/s 754 mmHg 70%

    24 Julho, Quarta-feira

    Tempo Temperatura Precipitação Vento Pressão Humidade
    00:00 +20°C° 0 mm 1 m/s 754 mmHg 72%
    01:00 +19°C° 0 mm 1 m/s 754 mmHg 74%
    02:00 +19°C° 0 mm 1 m/s 753 mmHg 76%
    03:00 +17°C° 0 mm 0 m/s 753 mmHg 77%
    04:00 +16°C° 0 mm 0 m/s 753 mmHg 79%
    05:00 +18°C° 0 mm 0 m/s 753 mmHg 73%
    06:00 +21°C° 0 mm 1 m/s 753 mmHg 68%
    07:00 +23°C° 0 mm 1 m/s 754 mmHg 62%
    08:00 +24°C° 0 mm 1 m/s 753 mmHg 58%
    09:00 +26°C° 0 mm 2 m/s 753 mmHg 54%
    10:00 +27°C° 0 mm 2 m/s 753 mmHg 50%
    11:00 +27°C° 0 mm 2 m/s 753 mmHg 49%
    12:00 +28°C° 0 mm 2 m/s 752 mmHg 48%
    13:00 +28°C° 0 mm 1 m/s 752 mmHg 47%
    14:00 +29°C° 0 mm 1 m/s 752 mmHg 46%
    15:00 +29°C° 0 mm 1 m/s 751 mmHg 44%
    16:00 +29°C° 0 mm 1 m/s 751 mmHg 43%
    17:00 +28°C° 0 mm 1 m/s 751 mmHg 49%
    18:00 +26°C° 0 mm 1 m/s 751 mmHg 54%
    19:00 +25°C° 0 mm 1 m/s 751 mmHg 60%
    20:00 +24°C° 0 mm 1 m/s 751 mmHg 62%
    21:00 +23°C° 0 mm 1 m/s 751 mmHg 65%
    22:00 +22°C° 0 mm 1 m/s 751 mmHg 67%
    23:00 +21°C° 0 mm 1 m/s 751 mmHg 68%
    Mostrar mais